Time,TemperatureF,DewpointF,PressureIn,WindDirection,WindDirectionDegrees,WindSpeedMPH,WindSpeedGustMPH,Humidity,HourlyPrecipIn,Conditions,Clouds,dailyrainin,SoftwareType,DateUTC
2013-02-22 00:06:00,44.1,37.0,29.94,North,6,0.0,-999.0,75,-99.99,,,0.00,weatherlink.com 1.10,2013-02-22 07:06:00,
2013-02-22 00:21:00,44.0,37.0,29.94,North,6,0.0,-999.0,76,-99.99,,,0.00,weatherlink.com 1.10,2013-02-22 07:21:00,
2013-02-22 00:36:00,43.4,36.0,29.94,North,6,0.0,-999.0,76,-99.99,,,0.00,weatherlink.com 1.10,2013-02-22 07:36:00,
2013-02-22 00:51:00,43.4,37.0,29.95,North,6,0.0,-999.0,77,-99.99,,,0.00,weatherlink.com 1.10,2013-02-22 07:51:00,
2013-02-22 01:06:00,43.7,37.0,29.95,North,6,0.0,-999.0,78,-99.99,,,0.00,weatherlink.com 1.10,2013-02-22 08:06:00,
2013-02-22 01:21:00,44.0,37.0,29.94,North,6,0.0,-999.0,77,-99.99,,,0.00,weatherlink.com 1.10,2013-02-22 08:21:00,
2013-02-22 01:36:00,44.8,38.0,29.95,SW,218,0.0,-999.0,76,-99.99,,,0.00,weatherlink.com 1.10,2013-02-22 08:36:00,
2013-02-22 01:51:00,45.6,37.0,29.95,SSW,213,0.0,-999.0,73,-99.99,,,0.00,weatherlink.com 1.10,2013-02-22 08:51:00,
2013-02-22 02:06:00,45.4,36.0,29.94,SW,230,0.0,-999.0,71,-99.99,,,0.00,weatherlink.com 1.10,2013-02-22 09:06:00,
2013-02-22 02:21:00,45.4,36.0,29.95,WSW,249,0.0,-999.0,70,-99.99,,,0.00,weatherlink.com 1.10,2013-02-22 09:21:00,
2013-02-22 02:36:00,45.1,36.0,29.94,WSW,249,0.0,-999.0,70,-99.99,,,0.00,weatherlink.com 1.10,2013-02-22 09:36:00,
2013-02-22 02:51:00,44.7,36.0,29.94,WSW,249,0.0,-999.0,71,-99.99,,,0.00,weatherlink.com 1.10,2013-02-22 09:51:00,
2013-02-22 03:06:00,44.7,36.0,29.94,WSW,252,0.0,-999.0,71,-99.99,,,0.00,weatherlink.com 1.10,2013-02-22 10:06:00,
2013-02-22 03:21:00,44.5,36.0,29.94,WSW,252,0.0,-999.0,71,-99.99,,,0.00,weatherlink.com 1.10,2013-02-22 10:21:00,
2013-02-22 03:36:00,44.4,36.0,29.94,West,281,0.0,-999.0,72,-99.99,,,0.00,weatherlink.com 1.10,2013-02-22 10:36:00,
2013-02-22 03:51:00,44.0,36.0,29.94,West,267,0.0,-999.0,73,-99.99,,,0.00,weatherlink.com 1.10,2013-02-22 10:51:00,
2013-02-22 04:06:00,44.0,36.0,29.94,WSW,250,0.0,-999.0,74,-99.99,,,0.00,weatherlink.com 1.10,2013-02-22 11:06:00,
2013-02-22 04:21:00,43.5,36.0,29.94,SSW,208,0.0,-999.0,75,-99.99,,,0.00,weatherlink.com 1.10,2013-02-22 11:21:00,
2013-02-22 04:36:00,43.5,37.0,29.95,West,261,0.0,-999.0,77,-99.99,,,0.00,weatherlink.com 1.10,2013-02-22 11:36:00,
2013-02-22 04:51:00,43.5,37.0,29.96,WNW,291,0.0,-999.0,78,-99.99,,,0.00,weatherlink.com 1.10,2013-02-22 11:51:00,
2013-02-22 05:06:00,43.4,37.0,29.96,West,259,0.0,-999.0,79,-99.99,,,0.00,weatherlink.com 1.10,2013-02-22 12:06:00,
2013-02-22 05:21:00,43.1,38.0,29.98,WSW,257,0.0,-999.0,81,-99.99,,,0.00,weatherlink.com 1.10,2013-02-22 12:21:00,
2013-02-22 05:36:00,42.8,38.0,29.98,WSW,250,0.0,-999.0,82,-99.99,,,0.00,weatherlink.com 1.10,2013-02-22 12:36:00,
2013-02-22 05:51:00,42.7,38.0,29.98,WSW,256,0.0,-999.0,83,-99.99,,,0.00,weatherlink.com 1.10,2013-02-22 12:51:00,
2013-02-22 06:06:00,42.5,38.0,29.98,West,259,0.0,-999.0,84,-99.99,,,0.00,weatherlink.com 1.10,2013-02-22 13:06:00,
2013-02-22 06:21:00,42.2,38.0,30.00,SW,219,0.0,-999.0,85,-99.99,,,0.00,weatherlink.com 1.10,2013-02-22 13:21:00,
2013-02-22 06:36:00,41.8,37.0,30.00,SW,225,0.0,-999.0,84,-99.99,,,0.00,weatherlink.com 1.10,2013-02-22 13:36:00,
2013-02-22 06:51:00,41.1,37.0,30.00,SW,223,0.0,-999.0,84,-99.99,,,0.00,weatherlink.com 1.10,2013-02-22 13:51:00,
2013-02-22 07:06:00,40.5,36.0,30.01,SW,223,0.0,-999.0,84,-99.99,,,0.00,weatherlink.com 1.10,2013-02-22 14:06:00,
2013-02-22 07:21:00,40.2,36.0,30.02,SW,223,0.0,-999.0,86,-99.99,,,0.00,weatherlink.com 1.10,2013-02-22 14:21:00,
2013-02-22 07:36:00,40.4,37.0,30.02,SW,223,0.0,-999.0,87,-99.99,,,0.00,weatherlink.com 1.10,2013-02-22 14:36:00,
2013-02-22 07:51:00,41.8,38.0,30.03,SW,223,0.0,-999.0,86,-99.99,,,0.00,weatherlink.com 1.10,2013-02-22 14:51:00,
2013-02-22 08:06:00,43.1,38.0,30.04,SW,225,0.0,-999.0,82,-99.99,,,0.00,weatherlink.com 1.10,2013-02-22 15:06:00,
2013-02-22 08:21:00,44.2,37.0,30.05,WSW,257,1.0,-999.0,75,-99.99,,,0.00,weatherlink.com 1.10,2013-02-22 15:21:00,
2013-02-22 08:36:00,45.0,36.0,30.06,WSW,243,2.0,-999.0,71,-99.99,,,0.00,weatherlink.com 1.10,2013-02-22 15:36:00,
2013-02-22 08:51:00,45.4,35.0,30.06,SW,228,0.0,-999.0,68,-99.99,,,0.00,weatherlink.com 1.10,2013-02-22 15:51:00,
2013-02-22 09:06:00,45.9,35.0,30.06,SW,216,0.0,-999.0,65,-99.99,,,0.00,weatherlink.com 1.10,2013-02-22 16:06:00,
2013-02-22 09:22:00,46.6,34.0,30.07,SSW,194,0.0,-999.0,62,-99.99,,,0.00,weatherlink.com 1.10,2013-02-22 16:22:00,
2013-02-22 09:37:00,47.3,34.0,30.06,SSW,192,0.0,-999.0,60,-99.99,,,0.00,weatherlink.com 1.10,2013-02-22 16:37:00,
2013-02-22 09:52:00,49.3,34.0,30.06,South,189,0.0,-999.0,57,-99.99,,,0.00,weatherlink.com 1.10,2013-02-22 16:52:00,
2013-02-22 10:07:00,50.6,34.0,30.06,SE,146,0.0,-999.0,54,-99.99,,,0.00,weatherlink.com 1.10,2013-02-22 17:07:00,
2013-02-22 10:22:00,52.1,34.0,30.06,SE,136,0.0,-999.0,50,-99.99,,,0.00,weatherlink.com 1.10,2013-02-22 17:22:00,
2013-02-22 10:37:00,51.6,33.0,30.06,South,181,0.0,-999.0,50,-99.99,,,0.00,weatherlink.com 1.10,2013-02-22 17:37:00,
2013-02-22 10:52:00,53.0,33.0,30.06,South,182,0.0,-999.0,47,-99.99,,,0.00,weatherlink.com 1.10,2013-02-22 17:52:00,
2013-02-22 11:07:00,53.4,34.0,30.07,ENE,60,0.0,-999.0,48,-99.99,,,0.00,weatherlink.com 1.10,2013-02-22 18:07:00,
2013-02-22 11:22:00,54.0,32.0,30.07,NE,55,6.0,-999.0,44,-99.99,,,0.00,weatherlink.com 1.10,2013-02-22 18:22:00,
2013-02-22 11:37:00,55.0,32.0,30.06,NE,48,0.0,-999.0,42,-99.99,,,0.00,weatherlink.com 1.10,2013-02-22 18:37:00,
2013-02-22 11:52:00,55.0,30.0,30.06,ENE,67,0.0,-999.0,39,-99.99,,,0.00,weatherlink.com 1.10,2013-02-22 18:52:00,
2013-02-22 12:07:00,55.6,29.0,30.06,ENE,61,0.0,-999.0,36,-99.99,,,0.00,weatherlink.com 1.10,2013-02-22 19:07:00,
2013-02-22 12:22:00,56.5,30.0,30.06,ENE,64,0.0,-999.0,36,-99.99,,,0.00,weatherlink.com 1.10,2013-02-22 19:22:00,
2013-02-22 12:37:00,56.2,27.0,30.06,NE,54,3.0,-999.0,33,-99.99,,,0.00,weatherlink.com 1.10,2013-02-22 19:37:00,
2013-02-22 12:52:00,57.4,25.0,30.05,SSW,192,0.0,-999.0,29,-99.99,,,0.00,weatherlink.com 1.10,2013-02-22 19:52:00,
2013-02-22 13:07:00,57.1,21.0,30.04,SE,134,0.0,-999.0,25,-99.99,,,0.00,weatherlink.com 1.10,2013-02-22 20:07:00,
2013-02-22 13:22:00,58.5,23.0,30.02,SW,223,6.0,-999.0,25,-99.99,,,0.00,weatherlink.com 1.10,2013-02-22 20:22:00,
2013-02-22 13:37:00,58.3,23.0,30.02,SW,220,0.0,-999.0,26,-99.99,,,0.00,weatherlink.com 1.10,2013-02-22 20:37:00,
2013-02-22 13:52:00,58.0,19.0,30.02,ENE,62,2.0,-999.0,22,-99.99,,,0.00,weatherlink.com 1.10,2013-02-22 20:52:00,
2013-02-22 14:07:00,58.5,20.0,30.02,ENE,58,0.0,-999.0,22,-99.99,,,0.00,weatherlink.com 1.10,2013-02-22 21:07:00,
2013-02-22 14:22:00,59.1,21.0,30.02,ENE,78,5.0,-999.0,23,-99.99,,,0.00,weatherlink.com 1.10,2013-02-22 21:22:00,
2013-02-22 14:37:00,59.1,22.0,30.02,East,79,4.0,-999.0,24,-99.99,,,0.00,weatherlink.com 1.10,2013-02-22 21:37:00,
2013-02-22 14:52:00,58.8,22.0,30.01,ENE,67,1.0,-999.0,24,-99.99,,,0.00,weatherlink.com 1.10,2013-02-22 21:52:00,
2013-02-22 15:07:00,59.1,21.0,30.01,ENE,69,0.0,-999.0,23,-99.99,,,0.00,weatherlink.com 1.10,2013-02-22 22:07:00,
2013-02-22 15:22:00,59.1,22.0,30.00,ENE,68,0.0,-999.0,24,-99.99,,,0.00,weatherlink.com 1.10,2013-02-22 22:22:00,
2013-02-22 15:37:00,59.5,19.0,30.00,ENE,60,1.0,-999.0,21,-99.99,,,0.00,weatherlink.com 1.10,2013-02-22 22:37:00,
2013-02-22 15:52:00,60.6,20.0,29.99,ENE,60,6.0,-999.0,21,-99.99,,,0.00,weatherlink.com 1.10,2013-02-22 22:52:00,
2013-02-22 16:07:00,60.3,21.0,29.99,ENE,58,0.0,-999.0,22,-99.99,,,0.00,weatherlink.com 1.10,2013-02-22 23:07:00,
2013-02-22 16:22:00,60.0,23.0,29.99,SW,220,4.0,-999.0,24,-99.99,,,0.00,weatherlink.com 1.10,2013-02-22 23:22:00,
2013-02-22 16:37:00,60.3,22.0,29.99,West,273,0.0,-999.0,23,-99.99,,,0.00,weatherlink.com 1.10,2013-02-22 23:37:00,
2013-02-22 16:52:00,60.4,21.0,29.98,South,175,0.0,-999.0,22,-99.99,,,0.00,weatherlink.com 1.10,2013-02-22 23:52:00,
2013-02-22 17:07:00,60.4,19.0,29.98,South,191,0.0,-999.0,20,-99.99,,,0.00,weatherlink.com 1.10,2013-02-23 00:07:00,
2013-02-22 17:19:00,60.3,21.0,29.98,WNW,291,3.0,-999.0,22,-99.99,,,0.00,weatherlink.com 1.10,2013-02-23 00:19:00,
2013-02-22 17:32:00,59.5,20.0,29.98,South,174,1.0,-999.0,22,-99.99,,,0.00,weatherlink.com 1.10,2013-02-23 00:32:00,
2013-02-22 17:48:00,58.8,20.0,29.99,SW,219,0.0,-999.0,22,-99.99,,,0.00,weatherlink.com 1.10,2013-02-23 00:48:00,
2013-02-22 18:03:00,59.1,21.0,30.00,SSW,202,0.0,-999.0,23,-99.99,,,0.00,weatherlink.com 1.10,2013-02-23 01:03:00,
2013-02-22 18:18:00,58.2,20.0,30.01,South,184,0.0,-999.0,23,-99.99,,,0.00,weatherlink.com 1.10,2013-02-23 01:18:00,
2013-02-22 18:33:00,57.7,21.0,30.02,South,184,0.0,-999.0,24,-99.99,,,0.00,weatherlink.com 1.10,2013-02-23 01:33:00,
2013-02-22 18:48:00,56.6,22.0,30.02,South,184,0.0,-999.0,26,-99.99,,,0.00,weatherlink.com 1.10,2013-02-23 01:48:00,
2013-02-22 19:03:00,56.2,22.0,30.03,SSE,153,0.0,-999.0,27,-99.99,,,0.00,weatherlink.com 1.10,2013-02-23 02:03:00,
2013-02-22 19:18:00,55.9,22.0,30.03,SSE,153,0.0,-999.0,27,-99.99,,,0.00,weatherlink.com 1.10,2013-02-23 02:18:00,
2013-02-22 19:33:00,55.2,22.0,30.03,SSE,153,0.0,-999.0,28,-99.99,,,0.00,weatherlink.com 1.10,2013-02-23 02:33:00,
2013-02-22 19:48:00,54.1,24.0,30.04,SSE,153,0.0,-999.0,31,-99.99,,,0.00,weatherlink.com 1.10,2013-02-23 02:48:00,
2013-02-22 20:03:00,53.4,23.0,30.03,SSE,153,0.0,-999.0,31,-99.99,,,0.00,weatherlink.com 1.10,2013-02-23 03:03:00,
2013-02-22 20:18:00,53.0,24.0,30.04,SSE,153,0.0,-999.0,32,-99.99,,,0.00,weatherlink.com 1.10,2013-02-23 03:18:00,
2013-02-22 20:33:00,52.1,25.0,30.05,SSE,153,0.0,-999.0,35,-99.99,,,0.00,weatherlink.com 1.10,2013-02-23 03:33:00,
2013-02-22 20:48:00,51.5,25.0,30.05,SSE,153,0.0,-999.0,36,-99.99,,,0.00,weatherlink.com 1.10,2013-02-23 03:48:00,
2013-02-22 21:03:00,52.5,24.0,30.05,SSE,153,0.0,-999.0,33,-99.99,,,0.00,weatherlink.com 1.10,2013-02-23 04:03:00,
2013-02-22 21:18:00,51.9,24.0,30.04,SSE,153,0.0,-999.0,34,-99.99,,,0.00,weatherlink.com 1.10,2013-02-23 04:18:00,
2013-02-22 21:33:00,51.5,25.0,30.05,SSE,153,0.0,-999.0,36,-99.99,,,0.00,weatherlink.com 1.10,2013-02-23 04:33:00,
2013-02-22 21:48:00,50.9,25.0,30.05,SSE,153,0.0,-999.0,37,-99.99,,,0.00,weatherlink.com 1.10,2013-02-23 04:48:00,
2013-02-22 22:03:00,50.0,27.0,30.05,SSE,153,0.0,-999.0,41,-99.99,,,0.00,weatherlink.com 1.10,2013-02-23 05:03:00,
2013-02-22 22:18:00,49.4,26.0,30.05,SSE,153,0.0,-999.0,41,-99.99,,,0.00,weatherlink.com 1.10,2013-02-23 05:18:00,
2013-02-22 22:33:00,49.5,26.0,30.05,SSE,153,0.0,-999.0,40,-99.99,,,0.00,weatherlink.com 1.10,2013-02-23 05:33:00,
2013-02-22 22:48:00,49.5,26.0,30.05,SSE,148,0.0,-999.0,41,-99.99,,,0.00,weatherlink.com 1.10,2013-02-23 05:48:00,
2013-02-22 23:03:00,48.7,27.0,30.05,SSE,148,0.0,-999.0,43,-99.99,,,0.00,weatherlink.com 1.10,2013-02-23 06:03:00,
2013-02-22 23:18:00,48.7,27.0,30.05,SSE,148,0.0,-999.0,44,-99.99,,,0.00,weatherlink.com 1.10,2013-02-23 06:18:00,
2013-02-22 23:33:00,47.6,28.0,30.05,SSE,148,0.0,-999.0,46,-99.99,,,0.00,weatherlink.com 1.10,2013-02-23 06:33:00,
2013-02-22 23:48:00,46.4,28.0,30.05,SSE,148,0.0,-999.0,50,-99.99,,,0.00,weatherlink.com 1.10,2013-02-23 06:48:00,